Wind_Speed
26 26 27 26 26 27 27 27 27 26 24 24 23 21 21 20 21 21 20 20 19 19 18 20 20 21 20 21 21 21 22 22 22 23 23 23 24 23 23 24 25 25 25 25
28 27 28 28 27 27 27 27 28 27 27 25 25 24 23 23 23 22 22 21 21 21 21 22 22 23 23 23 23 23 24 24 24 24 24 25 26 25 25 27 27 27 26 27
29 28 29 29 27 27 28 28 28 28 27 26 27 27 25 24 23 23 23 23 23 23 22 23 24 25 25 25 25 25 25 25 25 26 27 28 28 27 28 29 29 29 28 29
31 30 32 30 29 29 29 28 29 29 29 28 28 28 27 26 26 25 25 25 25 25 25 25 25 25 27 27 27 27 27 27 28 29 29 29 29 30 30 30 30 30 30 30
33 33 33 30 30 30 30 30 29 28 28 28 28 28 27 27 27 26 26 27 27 27 27 28 27 28 29 29 29 29 28 29 29 29 30 30 30 30 30 31 31 31 31 31
35 35 34 31 30 30 31 31 30 30 29 28 28 29 28 28 28 28 29 29 29 29 29 29 30 30 30 31 30 30 30 31 31 31 31 32 32 32 32 32 32 32 33 34
35 35 33 31 30 30 31 31 30 30 30 29 28 28 28 29 30 30 31 30 30 30 30 30 30 30 31 32 32 32 32 32 32 32 32 33 34 33 33 33 33 34 34 35
34 34 33 31 32 31 31 31 31 31 31 31 30 30 30 31 31 31 31 31 31 30 30 31 31 32 32 32 32 32 32 32 32 32 34 34 35 35 34 34 34 34 35 35
33 33 32 32 32 32 32 32 32 32 32 32 32 31 31 31 31 32 32 32 32 32 31 32 33 33 33 33 34 34 33 34 34 34 35 35 35 35 35 35 35 35 35 36
33 34 34 34 34 34 33 33 33 33 34 34 34 33 32 32 32 33 34 34 34 34 33 33 34 34 34 34 34 34 35 35 35 35 35 35 35 35 35 36 35 36 36 36
34 34 35 35 35 36 36 35 35 35 35 36 36 35 35 35 34 34 35 35 35 34 34 33 33 34 35 35 35 35 36 36 36 36 36 36 36 35 36 36 36 36 37 37
34 34 35 35 36 36 37 37 36 36 35 35 35 35 35 36 35 35 35 35 35 35 35 34 34 35 36 36 37 36 36 36 36 37 37 36 36 36 37 37 37 37 38 38
34 34 35 35 35 35 36 35 35 35 35 34 34 34 35 35 34 35 35 36 35 35 35 34 35 35 36 37 37 36 36 36 36 36 36 36 36 36 37 37 38 39 38 38
33 34 34 34 34 34 34 35 35 34 35 35 34 35 35 35 35 35 35 35 35 35 35 35 35 35 35 36 36 36 36 36 35 35 35 35 35 35 36 36 37 37 37 37
32 32 33 32 32 33 33 33 34 35 35 34 34 35 35 35 35 35 35 35 35 35 34 34 34 35 35 36 35 35 35 35 35 35 35 35 36 36 35 35 35 36 36 36
31 31 32 32 32 32 32 32 33 34 34 34 34 35 35 35 33 33 33 33 34 33 33 33 33 34 35 36 35 34 35 35 35 35 36 36 36 36 35 35 36 36 36 36
31 31 31 31 32 32 32 32 32 33 32 32 33 33 33 33 32 32 32 32 33 33 33 33 33 34 35 35 35 36 36 36 36 36 36 36 36 36 36 36 36 36 36 36
30 30 30 30 30 31 31 31 31 31 31 30 31 32 32 32 32 32 32 32 33 33 33 34 34 34 34 34 35 35 35 35 35 35 35 35 34 34 34 34 33 33 33 33
28 28 28 28 29 29 29 29 29 30 30 31 31 31 31 31 32 32 32 32 32 32 32 33 34 34 33 33 34 34 34 34 34 34 34 34 34 33 33 31 30 30 30 30
26 27 27 27 27 27 27 28 29 29 29 29 29 29 29 29 30 31 31 31 31 31 31 32 33 33 33 33 33 33 34 33 33 33 33 33 33 32 31 30 29 27 27 27
27 27 27 27 27 27 27 27 26 27 27 27 28 28 28 28 29 30 30 30 30 30 31 31 32 32 32 32 32 32 32 31 32 31 31 30 30 30 29 28 26 26 25 25
27 27 27 27 26 26 25 25 26 26 26 26 26 26 26 27 28 28 28 28 29 29 30 30 30 30 30 29 30 29 29 28 28 28 28 28 28 28 27 25 24 24 24 24
25 25 26 26 25 24 23 24 24 24 24 24 24 25 25 25 26 26 27 27 27 27 27 26 26 27 26 26 25 25 25 25 25 26 26 27 27 26 25 24 23 23 24 24
22 22 22 22 22 23 23 22 23 23 22 22 23 23 23 23 23 24 24 24 24 23 23 23 23 23 23 23 22 23 23 24 24 25 25 25 25 25 24 23 23 23 23 23
19 19 20 20 20 20 21 21 21 21 21 21 21 22 22 22 22 22 22 21 20 20 20 20 20 20 20 20 21 21 22 23 23 23 24 24 23 22 22 22 23 23 23 23
17 16 17 17 17 18 18 18 18 18 19 19 19 20 20 20 20 20 19 19 19 18 18 18 18 18 19 19 20 20 21 22 22 22 22 23 22 21 21 21 22 22 22 22
15 15 15 16 16 16 17 17 17 17 18 17 18 18 18 18 18 17 17 16 17 17 18 18 17 17 18 18 19 19 20 20 20 21 21 20 20 20 21 21 21 21 22 22
Wind_Direction
249 249 251 254 256 259 263 267 269 271 272 274 274 275 275 273 272 273 274 279 282 284 285 285 286 289 290 292 293 294 296 297 296 297 298 297 297 298 299 300 302 301 301 301
252 252 253 254 256 260 263 265 267 268 270 272 273 273 273 271 268 268 271 274 277 280 285 285 285 286 287 288 288 289 291 292 293 295 297 299 298 298 299 300 301 301 300 300
255 256 257 257 258 262 265 266 267 268 270 270 271 271 271 270 267 269 271 273 274 277 281 283 283 284 286 288 289 289 290 291 292 293 295 297 299 300 300 300 300 299 299 299
257 257 258 260 260 262 265 267 268 269 269 270 272 272 271 271 270 270 270 272 273 275 278 282 283 284 286 287 289 289 290 291 290 293 294 297 298 299 299 299 300 299 298 298
258 259 261 262 264 264 264 265 268 269 269 269 269 270 271 271 270 269 269 272 275 278 281 282 283 285 286 286 288 288 289 291 291 292 293 294 296 297 297 297 297 298 297 297
259 260 261 263 264 263 263 265 267 269 269 269 269 270 269 269 268 268 269 272 274 278 281 283 284 285 287 288 287 288 289 289 290 291 292 293 294 294 294 294 295 296 296 295
260 261 262 263 263 263 263 266 267 269 269 269 269 270 269 268 269 270 271 272 274 277 281 282 284 285 286 286 287 289 289 289 290 290 292 293 293 292 292 293 293 294 295 294
258 260 261 261 262 262 264 265 266 267 268 268 269 270 271 270 271 272 272 273 274 277 279 280 281 283 284 285 286 288 290 290 290 291 291 293 292 291 291 293 294 295 295 294
258 260 262 262 262 263 264 265 266 266 267 269 271 272 272 271 272 273 274 275 275 276 277 278 280 281 283 285 286 288 290 291 291 291 292 292 292 291 292 292 293 294 295 294
260 259 261 261 261 262 263 264 265 266 267 268 269 271 272 272 272 272 273 274 276 277 279 279 280 281 282 285 287 287 288 290 291 292 293 293 293 292 291 291 292 293 294 294
259 260 260 260 261 262 261 262 264 266 266 266 268 270 272 272 272 272 274 275 276 278 279 281 282 283 284 285 285 286 287 289 289 291 293 293 293 294 294 292 292 292 293 293
259 261 261 261 262 263 263 263 263 264 266 267 268 270 271 273 272 273 273 273 275 277 279 281 282 283 283 284 285 286 287 288 289 290 291 291 292 292 293 292 292 292 293 293
261 262 262 262 263 265 265 265 265 265 266 267 269 270 271 273 273 273 272 273 274 276 278 280 282 283 284 285 286 287 287 288 288 289 290 290 290 290 291 291 291 292 293 292
261 262 263 263 264 265 266 266 267 267 267 268 269 270 271 272 273 273 273 273 274 276 278 280 282 283 284 285 286 287 288 288 288 288 288 289 290 290 290 291 291 291 292 293
260 261 262 263 264 265 266 266 267 269 268 267 268 270 271 272 273 273 273 273 274 276 278 280 282 283 283 285 286 287 288 288 287 288 288 288 289 290 291 291 292 292 293 293
260 261 262 263 264 266 266 268 270 270 270 269 269 269 270 271 272 273 274 275 276 277 278 280 281 283 285 285 287 288 288 288 289 290 290 290 290 290 291 292 292 291 291 292
260 262 263 265 267 267 267 269 271 270 270 270 269 268 268 269 271 271 273 275 276 278 280 281 282 284 285 286 287 287 288 289 289 290 291 291 291 291 291 292 291 290 290 290
262 264 265 266 267 266 267 268 270 271 270 270 270 270 271 271 272 273 274 275 276 278 280 281 282 284 285 286 288 288 288 289 289 290 291 292 292 292 292 292 291 291 291 291
264 265 266 268 267 267 268 268 268 268 269 271 270 271 272 272 273 274 275 276 277 278 279 279 282 284 286 287 288 288 288 290 290 290 291 292 292 293 293 293 292 292 292 291
267 268 270 270 269 269 270 270 269 269 269 270 270 271 273 275 274 274 276 277 277 279 280 280 282 283 285 287 288 288 290 290 291 293 293 293 293 292 293 293 291 292 294 294
268 269 270 270 270 270 270 270 270 270 270 271 274 275 276 277 277 277 278 278 279 279 280 281 282 283 284 286 286 288 289 290 291 294 295 295 295 295 295 295 294 295 296 296
268 269 270 270 270 270 270 270 271 271 271 273 276 277 277 277 276 276 277 279 279 280 281 282 283 283 284 285 286 287 289 290 291 293 295 296 297 296 297 297 297 298 299 300
268 269 269 269 269 270 269 269 269 270 271 272 274 276 277 276 276 276 277 280 281 282 283 284 284 284 284 285 287 289 291 292 293 296 298 298 299 298 299 299 300 300 301 300
267 268 269 270 269 268 266 265 267 269 271 273 275 276 277 278 279 279 279 280 282 283 284 285 284 284 284 286 288 291 294 295 296 299 299 299 299 299 299 299 300 301 301 301
269 270 271 270 269 269 267 266 268 270 271 273 274 275 278 279 279 279 280 280 281 282 283 284 284 284 286 289 290 292 295 297 300 301 302 302 301 301 301 301 302 301 301 302
269 270 272 272 270 269 271 273 273 272 273 273 274 278 281 282 281 281 281 280 279 279 282 284 285 286 288 290 292 295 298 300 301 303 305 305 304 304 304 304 304 303 304 305
267 269 272 274 273 273 275 278 279 279 278 276 277 279 280 280 279 281 281 280 280 282 283 285 288 291 292 293 296 299 303 304 304 305 307 307 307 306 307 306 305 305 305 306
Height
5876 5878 5879 5880 5882 5882 5883 5883 5884 5885 5885 5886 5886 5886 5885 5885 5884 5884 5884 5884 5883 5882 5881 5879 5878 5877 5876 5875 5873 5871 5869 5867 5865 5864 5861 5859 5857 5855 5853 5851 5849 5847 5844 5842
5869 5871 5872 5873 5875 5876 5877 5877 5878 5878 5879 5880 5879 5879 5879 5879 5879 5879 5878 5878 5877 5876 5875 5874 5873 5871 5870 5869 5867 5865 5864 5862 5860 5858 5856 5853 5851 5849 5847 5845 5843 5840 5838 5835
5862 5864 5864 5866 5870 5870 5870 5871 5871 5871 5873 5873 5873 5873 5873 5873 5873 5872 5872 5872 5871 5870 5869 5868 5867 5866 5864 5862 5861 5859 5857 5856 5854 5852 5849 5847 5844 5842 5840 5838 5836 5833 5831 5828
5855 5857 5857 5862 5862 5863 5863 5864 5864 5864 5865 5866 5866 5866 5867 5867 5866 5866 5866 5865 5865 5864 5863 5862 5861 5859 5857 5855 5854 5852 5851 5849 5847 5844 5842 5840 5837 5835 5833 5830 5828 5826 5823 5820
5847 5848 5850 5853 5854 5855 5855 5856 5857 5857 5858 5858 5858 5859 5859 5860 5859 5859 5859 5858 5858 5857 5856 5855 5853 5851 5850 5848 5846 5845 5843 5841 5838 5836 5834 5832 5830 5827 5825 5822 5820 5817 5815 5812
5839 5840 5842 5846 5847 5846 5848 5848 5849 5849 5850 5851 5851 5852 5853 5852 5852 5852 5851 5851 5850 5849 5848 5847 5845 5843 5842 5840 5838 5836 5834 5832 5830 5827 5825 5823 5821 5818 5815 5813 5810 5808 5805 5803
5831 5832 5834 5837 5838 5839 5841 5842 5841 5841 5842 5843 5843 5844 5844 5844 5844 5843 5843 5843 5842 5841 5840 5839 5837 5835 5833 5832 5830 5827 5825 5823 5820 5818 5816 5814 5811 5808 5806 5803 5801 5799 5796 5793
5822 5824 5828 5829 5829 5831 5832 5832 5833 5833 5833 5834 5834 5835 5835 5835 5835 5834 5834 5834 5833 5832 5831 5830 5828 5826 5824 5822 5820 5818 5816 5813 5810 5808 5806 5804 5801 5798 5796 5794 5791 5789 5786 5783
5815 5818 5819 5820 5821 5821 5822 5823 5824 5824 5825 5825 5825 5826 5826 5826 5825 5825 5824 5824 5823 5822 5821 5820 5818 5817 5815 5813 5811 5809 5806 5804 5801 5799 5796 5793 5790 5788 5786 5783 5781 5778 5776 5773
5806 5808 5809 5810 5811 5812 5813 5814 5814 5815 5816 5816 5816 5816 5816 5816 5816 5815 5815 5814 5813 5812 5811 5810 5808 5806 5805 5803 5801 5799 5797 5794 5792 5789 5786 5783 5780 5777 5775 5772 5770 5768 5766 5763
5796 5798 5800 5801 5801 5802 5803 5804 5805 5805 5805 5806 5806 5807 5806 5806 5806 5805 5804 5804 5803 5802 5800 5798 5797 5796 5794 5792 5791 5788 5786 5784 5782 5779 5776 5773 5770 5767 5765 5762 5759 5757 5755 5752
5787 5789 5790 5791 5791 5791 5792 5793 5794 5795 5795 5795 5796 5796 5796 5795 5795 5795 5794 5794 5793 5792 5791 5789 5788 5786 5784 5782 5780 5778 5776 5773 5771 5769 5766 5763 5760 5757 5754 5752 5749 5746 5744 5742
5777 5778 5779 5780 5781 5781 5781 5782 5783 5784 5785 5785 5785 5785 5785 5785 5784 5784 5783 5783 5782 5782 5780 5779 5777 5776 5774 5772 5769 5767 5765 5763 5761 5758 5756 5753 5750 5747 5745 5742 5739 5737 5734 5732
5767 5768 5769 5770 5771 5771 5771 5772 5772 5773 5774 5774 5774 5774 5774 5774 5774 5773 5773 5772 5771 5771 5770 5768 5767 5766 5764 5762 5760 5757 5755 5752 5750 5748 5745 5743 5740 5738 5735 5732 5730 5727 5724 5722
5758 5758 5759 5761 5761 5761 5762 5762 5762 5763 5763 5764 5764 5764 5764 5763 5763 5762 5762 5761 5761 5760 5760 5758 5757 5756 5753 5751 5749 5747 5744 5742 5740 5737 5735 5733 5730 5728 5725 5723 5720 5717 5715 5712
5749 5750 5751 5751 5752 5752 5752 5752 5753 5753 5753 5753 5753 5753 5753 5753 5752 5752 5752 5751 5750 5750 5749 5748 5747 5746 5744 5741 5739 5737 5735 5733 5730 5728 5725 5722 5720 5718 5715 5713 5710 5707 5705 5702
5740 5741 5742 5742 5743 5742 5743 5743 5743 5743 5743 5743 5743 5743 5743 5743 5743 5742 5742 5741 5740 5740 5739 5738 5737 5736 5734 5732 5730 5728 5725 5723 5720 5718 5715 5712 5710 5708 5706 5703 5700 5698 5695 5692
5731 5732 5732 5733 5733 5733 5734 5734 5733 5733 5734 5734 5734 5734 5734 5734 5733 5733 5732 5731 5731 5730 5729 5729 5727 5726 5724 5722 5720 5718 5715 5713 5711 5708 5706 5703 5700 5698 5695 5693 5690 5688 5685 5683
5723 5723 5724 5724 5724 5724 5724 5724 5724 5725 5725 5725 5725 5726 5725 5725 5725 5724 5723 5722 5722 5721 5720 5719 5717 5716 5714 5712 5710 5708 5706 5704 5701 5699 5696 5694 5691 5689 5686 5683 5681 5678 5676 5673
5716 5716 5716 5716 5716 5716 5716 5716 5716 5716 5716 5716 5717 5717 5717 5716 5716 5715 5714 5713 5712 5712 5711 5710 5708 5707 5705 5703 5701 5699 5696 5694 5692 5690 5687 5684 5682 5679 5677 5674 5672 5669 5667 5665
5708 5708 5708 5708 5708 5708 5708 5708 5708 5708 5708 5708 5708 5708 5708 5707 5707 5706 5705 5704 5704 5702 5701 5700 5699 5697 5696 5694 5692 5690 5688 5686 5683 5681 5679 5676 5673 5671 5668 5666 5664 5662 5660 5658
5701 5701 5701 5701 5700 5700 5700 5700 5700 5700 5700 5700 5700 5699 5699 5698 5698 5697 5696 5695 5695 5693 5692 5691 5690 5688 5687 5685 5684 5682 5680 5678 5676 5673 5671 5668 5666 5663 5661 5659 5657 5655 5653 5651
5693 5693 5693 5693 5693 5693 5693 5693 5693 5692 5692 5692 5692 5692 5691 5690 5689 5689 5688 5688 5686 5685 5684 5683 5681 5680 5678 5677 5676 5674 5672 5670 5668 5666 5664 5661 5659 5656 5654 5652 5650 5648 5646 5644
5686 5686 5686 5685 5685 5686 5686 5686 5685 5685 5685 5685 5685 5685 5684 5683 5682 5681 5681 5680 5679 5677 5676 5675 5674 5672 5671 5670 5669 5667 5666 5664 5662 5659 5657 5654 5652 5650 5647 5646 5644 5642 5640 5638
5680 5679 5679 5678 5678 5678 5679 5678 5679 5679 5679 5678 5678 5678 5677 5676 5675 5674 5673 5672 5671 5670 5669 5668 5667 5666 5665 5664 5663 5661 5660 5658 5655 5652 5650 5648 5645 5643 5641 5639 5638 5636 5634 5632
5674 5674 5673 5672 5672 5672 5672 5672 5672 5672 5672 5672 5672 5671 5670 5669 5669 5668 5667 5666 5665 5665 5664 5664 5662 5661 5660 5659 5657 5656 5654 5652 5649 5647 5644 5642 5640 5638 5636 5634 5632 5630 5628 5626
5670 5670 5669 5669 5668 5668 5668 5667 5667 5667 5666 5666 5666 5665 5665 5664 5663 5662 5662 5661 5661 5661 5660 5659 5658 5657 5655 5654 5652 5650 5648 5646 5644 5641 5639 5637 5634 5632 5630 5628 5626 5625 5623 5621